Погода в Шестакове

Россия / Воронежская область     50°47′47″N   40°03′08″E
темп.,
°C
ветер,
м/с
пор.,
м/с
влажн.,
%
обл.,
%
осадки,
мм/ч
давл.,
гПа
погр.,
м
6 мая, чт
чт600:00+9ю35695 0.0 101766
03:00+8ю3571100 0.0 101773
06:00+8ююв3970100 0.0 1016228
09:00+13ю5956100 0.0 1016542
12:00+16ю7947100 0.0 10151641
15:00+18ююз7944100 0.0 10142057
18:00+16ю4858100 0.0 1013332
21:00+14ю41159100 0.0 1013319
7 мая, пт
пт700:00+14ю41260100 0.0 1013433
03:00+12сз3678100 0.0 1013265
06:00+11з2395100 1.8 1015196
09:00+11с4484100 2.2 1016499
12:00+15с33581 0.0 10161222
15:00+17ссз22435 0.0 10161878
18:00+17всв114592 0.0 10161423
21:00+12в3359100 0.0 101631
8 мая, сб
сб800:00+12юв4977100 0.0 1016232
03:00+10юв498799 0.0 1014206
06:00+12ююв51285100 0.1 1013347
09:00+15ююз51169100 0.1 1013755
12:00+16ю71266100 0.1 1012886
15:00+18ююз81358100 0.1 10101378
18:00+12ююз51390100 1.4 1010510
21:00+12зюз4894100 1.6 1010375
9 мая, вс
вс900:00+8ссз61090100 0.0 1011613
03:00+6ссз71291100 0.4 1012697
06:00+5с51191100 3.9 1013801
09:00+7ссз6978100 5.7 10131074
12:00+8ссз6974100 0.8 10151277
15:00+9ссз7974100 1.2 10161189
18:00+8сз6977100 0.4 10171040
21:00+7сз61087100 0.8 1019814
10 мая, пн
пн1000:00+6сз61286100 0.0 1019492
03:00+6сз7158199 0.0 1020648
06:00+7ссз81671100 0.0 10201299
09:00+7ссз101975100 0.8 10191735
12:00+5с101888100 2.9 10181184
15:00+5с91690100 4.4 1017910
18:00+6с71495100 0.6 1016634
21:00+8ссв71497100 2.1 1016675